This is the latest recevied weather packets stored in our database for station/object AC2VK-1. If no packets are shown the sender has not sent any weather packets the latest 1 day(s).
| Time | Temp. | Humidity | Pressure | Rain* | Wind** | Luminosity | Snow |
|---|---|---|---|---|---|---|---|
| 1778007556 | 23.89° C | 48% | 1014.2 hPa | 0 mm | 1.79 m/s, 280° | - | - |
| 1778006956 | 23.89° C | 50% | 1014.5 hPa | 0 mm | 1.34 m/s, 216° | - | - |
| 1778006356 | 23.89° C | 53% | 1014.7 hPa | 0 mm | 1.34 m/s, 147° | - | - |
| 1778005756 | 23.89° C | 53% | 1014.8 hPa | 0 mm | 1.34 m/s, 229° | - | - |
| 1778005156 | 23.33° C | 53% | 1015.1 hPa | 0 mm | 1.79 m/s, 185° | - | - |
| 1778004556 | 23.33° C | 50% | 1015.1 hPa | 0 mm | 1.79 m/s, 226° | - | - |
| 1778003956 | 23.33° C | 51% | 1015.3 hPa | 0 mm | 2.24 m/s, 264° | - | - |
| 1778003356 | 23.89° C | 49% | 1015.5 hPa | 0 mm | 1.79 m/s, 73° | - | - |
| 1778002756 | 23.89° C | 49% | 1015.6 hPa | 0 mm | 1.79 m/s, 315° | - | - |
| 1778002156 | 23.33° C | 49% | 1015.4 hPa | 0 mm | 1.79 m/s, 254° | - | - |
| 1778001556 | 23.33° C | 48% | 1015.7 hPa | 0 mm | 1.79 m/s, 220° | - | - |
| 1778000956 | 23.33° C | 49% | 1016 hPa | 0 mm | 1.34 m/s, 261° | - | - |
| 1778000356 | 23.33° C | 50% | 1016.1 hPa | 0 mm | 2.24 m/s, 263° | - | - |
| 1777999756 | 23.33° C | 51% | 1016.3 hPa | 0 mm | 1.79 m/s, 45° | - | - |
| 1777999156 | 22.78° C | 50% | 1016.5 hPa | 0 mm | 2.24 m/s, 4° | - | - |
| 1777998556 | 22.78° C | 51% | 1016.6 hPa | 0 mm | 1.79 m/s, 225° | - | - |
| 1777997956 | 22.78° C | 49% | 1016.6 hPa | 0 mm | 2.68 m/s, 157° | - | - |
| 1777997356 | 22.78° C | 50% | 1016.4 hPa | 0 mm | 2.24 m/s, 341° | - | - |
| 1777996756 | 22.78° C | 51% | 1016.6 hPa | 0 mm | 0.89 m/s, 291° | - | - |
| 1777996156 | 22.22° C | 55% | 1016.4 hPa | 0 mm | 1.34 m/s, 343° | - | - |
| 1777995556 | 21.67° C | 53% | 1016.5 hPa | 0 mm | 1.79 m/s, 287° | - | - |
| 1777994956 | 21.67° C | 54% | 1016.6 hPa | 0 mm | 1.79 m/s, 274° | - | - |
| 1777994356 | 21.67° C | 56% | 1016.4 hPa | 0 mm | 0.89 m/s, 253° | - | - |
| 1777993756 | 21.67° C | 56% | 1016.5 hPa | 0 mm | 0.89 m/s, 114° | - | - |
| 1777993156 | 21.67° C | 54% | 1016.5 hPa | 0 mm | 1.34 m/s, 231° | - | - |
* Rain latest hour (hover to see other rain measurements)
** Current wind speed in m/s (hover to see current wind gust speed)